User: anonymous   Login
Location: Unspecified
(0.0000°N, 0.0000°E)
Time: 09:43:30
(UTC+00:00)
Language:

OBJECT C - Orbit

View from above orbital plane
View from above orbital plane
View from above satellite
View from above satellite

Ground track
Ground track

The orbit data is extracted from the following two-line orbital elements,

1 42827U 17042C   18018.56518215 +.00000366 +00000-0 +42726-4 0  9998
2 42827 097.6085 286.4341 0014804 340.2898 019.7746 14.90698203028005
Epoch (UTC): 18 January 2018 13:33:51
Eccentricity: 0.0014804
inclination: 97.6085°
perigee height: 585 km
apogee height: 606 km
right ascension of ascending node: 286.4341°
argument of perigee: 340.2898°
revolutions per day: 14.90698203
mean anomaly at epoch: 19.7746°
orbit number at epoch: 2800

The dashed part of the orbit path shows where the satellite is in the earth's shadow,  

DLR